Regional Weather Roundup
Issued by NWS Albany, NY

Home | Current Version | Previous Version | Text Only | Print | Product List | Glossary On
Versions: 1 2 3 4 5 6 7 8 9 10 11 12 13 14 15 16 17 18 19 20 21 22 23 24 25 26 27 28 29 30 31 32 33 34 35 36 37 38 39 40 41 42 43 44 45 46 47 48 49 50
000
ASUS41 KALY 260010
RWRALY

NEW YORK STATE HOURLY WEATHER ROUNDUP
NATIONAL WEATHER SERVICE ALBANY NY
800 PM EDT SUN SEP 25 2016

NOTE: "FAIR" INDICATES FEW OR NO CLOUDS BELOW 12,000 FEET WITH NO
SIGNIFICANT WEATHER AND/OR NO OBSTRUCTIONS TO VISIBILITY.

NYZ032-033-038>043-046>054-057>066-NYZ062>081-082-084-260100-
EAST


CITY           SKY/WX    TMP DP  RH WIND       PRES   REMARKS
ALBANY         PTCLDY    54  38  54 CALM      30.16R
GLENS FALLS    CLEAR     50  39  66 N5        30.17R
POUGHKEEPSIE   CLEAR     52  40  63 CALM      30.15R
NEWBURGH       CLEAR     63  36  36 VRB5      30.17R
MONTGOMERY     CLEAR     53  42  66 CALM      30.16R
WHITE PLAINS   CLEAR     57  38  48 CALM      30.15R
ISLIP          PTCLDY    58  35  42 N3        30.15R
NEW YORK CITY  PTCLDY    68  38  33 NE3       30.14R
CENTRAL PARK   CLEAR     63  36  36 CALM      30.17S
$$

NYZ005>009-017-018-044>046-055-056-260100-
CENTRAL


CITY           SKY/WX    TMP DP  RH WIND       PRES   REMARKS
FULTON         CLEAR     47  43  86 CALM      30.20R
SYRACUSE       PTCLDY    51  42  71 N6        30.19R
ROME           CLEAR     50  43  77 CALM      30.21R
ELMIRA         PTCLDY    54  36  50 E8        30.17R
BINGHAMTON     CLEAR     52  33  48 NE8       30.18R
MONTICELLO     CLEAR     52  34  50 N6        30.19R
$$

NYZ026>034-041>043-087-260100-
NORTH


CITY           SKY/WX    TMP DP  RH WIND       PRES   REMARKS
WATERTOWN      CLEAR     45  42  89 CALM      30.20R
FORT DRUM      NOT AVBL
OGDENSBURG     FAIR      45  42  89 CALM      30.19R
MASSENA        CLEAR     47  40  76 CALM      30.20R
SARANAC LAKE   CLEAR     39  35  86 NW3       30.18R
PLATTSBURGH    CLEAR     48  41  76 CALM      30.18R
$$

NYZ001>004-010>016-019>021-085-260100-
WEST


CITY           SKY/WX    TMP DP  RH WIND       PRES   REMARKS
NIAGARA FALLS  MOCLDY    55  46  71 NE6       30.15F
BUFFALO        CLOUDY    57  46  66 NE7       30.15F
DUNKIRK        PTCLDY    56  46  69 CALM      30.14S
JAMESTOWN      CLOUDY    57  39  51 NE6       30.15S
WELLSVILLE     CLOUDY    55  41  59 E3        30.19R
ROCHESTER      CLOUDY    56  37  49 E7        30.18S
PENN YAN       CLOUDY    51  36  56 CALM      30.19S
$$

             KEY
       WCI = WIND CHILL INDEX
       VSB = VISIBILITY
       HX  = HEAT INDEX
$$



USA.gov is the U.S. government's official web portal to all federal, state and local government web resources and services.